Tracking 35334 objects as of 12-Sep-2026
HD Live streaming from Space Station
objects crossing your sky now

COSMOS 2363 (GLONASS)

Track COSMOS 2363 (GLONASS) now!
COSMOS 2363 (GLONASS) is classified as:


NORAD ID: 25594
Int'l Code: 1998-077B
Launch date: December 30, 1998
Source: Commonwealth of Independent States (former USSR) (CIS)
Launch site: TYURATAM MISSILE AND SPACE COMPLEX (TTMTR)
Your satellite tracking list
Your tracking list is empty




NASA's NSSDC Master Catalog

Two Line Element Set (TLE):
1 25594U 98077B   26255.01208719 -.00000025  00000-0  00000-0 0  9992
2 25594  64.3881  57.0322 0027419  46.7191 315.3560  2.13103604215536
Source of the keplerian elements: AFSPC